TIME,DELAY(SENSOR),PRES,OXYGEN,RAWTEMP,T(OPTODE),TCPHASE,FLUOR,BETA(BETA700),BETA(BETA412),BETA(BETA440),CDOM,C(CSC),ED(ED412.20),ED(ED444.00),ED(ED489.60),ED(ED554.30),LU(LU412.10),LU(LU443.90),LU(LU489.70),LU(LU554.70),COMP,TILTX,TILTY,CHECK
1367727246,5808,856.4000244140625000,31.9371204376220700,559.9426879882812000,4.4876708984375000,56.7731208801269500,55,99,100,78,81,15543,0,0,0,0,2147123611,2147764169,2147572708,2147571483,518,2,13,59551
1367730842,5808,909.8099975585938000,35.1470298767089840,565.7158813476562000,4.3086152076721190,56.3137397766113300,55,98,100,79,82,15543,0,0,0,0,2147121728,2147765120,2147572086,2147567168,600,2,13,14286
1367734442,5806,916.4799804687500000,35.0534095764160160,566.2299804687500000,4.2926540374755860,56.3361701965332000,55,100,99,77,82,15539,0,0,0,0,2147118098,2147773906,2147569334,2147565001,3582,2,13,61661
1367738042,5808,948.2999877929688000,35.8465385437011700,568.3712158203125000,4.2261657714843750,56.2356910705566400,54,97,99,78,82,15543,0,0,0,0,2147120612,2147769078,2147571145,2147566418,442,2,13,1100
1367741642,5812,951.4799804687500000,36.4181098937988300,568.7139282226562000,4.2155208587646480,56.1477317810058600,55,103,99,78,81,15544,0,0,0,0,2147122294,2147774948,2147575908,2147567899,434,2,13,19040
1367745242,5811,954.9299926757812000,36.1212692260742200,569.0734863281250000,4.2043499946594240,56.1965293884277340,55,97,99,78,82,15539,0,0,0,0,2147122221,2147776365,2147571437,2147568722,75,2,13,759
1367748842,5810,982.2899780273438000,36.2553482055664060,570.6785888671875000,4.1544690132141110,56.1948509216308600,55,97,99,78,82,15511,0,0,0,0,2147120850,2147769078,2147573092,2147567323,107,2,13,53543
1367752442,5810,981.0999755859375000,38.3973007202148440,570.5457763671875000,4.1585998535156250,55.8613586425781250,55,97,100,78,83,15540,0,0,0,0,2147118866,2147769124,2147571318,2147565933,165,2,13,32386
1367756042,5807,980.6300048828125000,39.2975006103515600,570.8817138671875000,4.1481571197509770,55.7277488708496100,54,97,99,79,82,15542,0,0,0,0,2147120868,2147771081,2147570944,2147569334,482,2,13,47721
1367759642,5808,987.0999755859375000,37.9648513793945300,570.9105224609375000,4.1472630500793460,55.9342002868652340,54,108,100,78,81,15539,0,0,0,0,2147125092,2147767497,2147571702,2147569910,198,2,13,56249
1367763242,5807,990.1199951171875000,38.5453186035156250,570.8270263671875000,4.1498599052429200,55.8460388183593750,55,97,100,78,81,15528,0,0,0,0,2147122130,2147770642,2147570496,2147567396,376,2,13,3089
1367766842,5807,987.8599853515625000,37.0156097412109400,571.3842773437500000,4.1325359344482420,56.0796585083007800,56,98,100,80,81,15543,0,0,0,0,2147122569,2147767250,2147576329,2147568420,336,2,13,62556
1367770442,5809,989.8300170898438000,38.5520401000976560,571.1439208984375000,4.1400070190429690,55.8464088439941400,56,101,101,77,81,15537,0,0,0,0,2147124059,2147767753,2147574354,2147564973,3508,2,13,7661
1367774042,5809,992.3300170898438000,40.0422592163085940,570.9218750000000000,4.1469078063964840,55.6168289184570300,54,97,100,77,82,15533,0,0,0,0,2147123620,2147767259,2147574244,2147567488,3174,2,13,59629
1367777642,5810,995.2399902343750000,39.3686294555664060,570.8798828125000000,4.1482119560241700,55.7225990295410160,54,99,99,78,82,15534,0,0,0,0,2147121773,2147762697,2147568292,2147567387,179,2,13,62704
1367781242,5810,1000.9400024414062000,39.7118797302246100,569.9075927734375000,4.1784319877624510,55.6601181030273440,54,99,100,77,81,15534,0,0,0,0,2147120301,2147770212,2147574016,2147568109,2910,2,13,32605
1367784842,5810,991.6400146484375000,39.0563888549804700,569.9639282226562000,4.1766829490661620,55.7595710754394500,54,99,98,78,80,15534,0,0,0,0,2147121627,2147765531,2147572470,2147568018,3409,2,13,12177
1367788442,5810,992.5999755859375000,38.7261009216308600,570.4464721679688000,4.1616840362548830,55.8112106323242200,55,97,100,78,81,15538,0,0,0,0,2147121691,2147767222,2147571081,2147566646,119,2,13,3437
1367792042,5809,985.5700073242188000,39.9495506286621100,571.2365722656250000,4.1371250152587890,55.6380386352539060,55,99,100,77,81,15536,0,0,0,0,2147120658,2147765988,2147574528,2147567789,396,2,13,3950
1367795642,5812,985.3400268554688000,38.2249488830566400,572.3557128906250000,4.1023349761962890,55.9110183715820300,55,98,99,78,81,15536,0,0,0,0,2147119771,2147771053,2147572196,2147567076,170,2,13,6444
1367799242,5809,982.1799926757812000,38.2496910095214840,574.0560913085938000,4.0494461059570310,55.9213294982910160,53,97,100,78,82,15535,0,0,0,0,2147125037,2147772059,2147571126,2147566482,3584,2,13,46908
1367802842,5811,984.4299926757812000,40.9975700378418000,573.7108764648438000,4.0601859092712400,55.5090904235839840,55,98,99,79,82,15533,0,0,0,0,2147121270,2147771556,2147573156,2147565641,80,2,13,29705
1367806442,5811,981.8400268554688000,38.8132896423339840,574.0443725585938000,4.0498099327087400,55.8326301574707000,54,99,99,77,81,15530,0,0,0,0,2147123136,2147767442,2147572032,2147566482,3496,2,13,10346
1367810042,5812,978.8499755859375000,40.8604202270507800,573.7000122070312000,4.0605258941650390,55.5246009826660160,56,100,100,77,81,15533,0,0,0,0,2147121270,2147764516,2147572406,2147566372,3569,3,13,54156
1367813642,5810,983.3800048828125000,40.6566009521484400,573.6953125000000000,4.0606708526611330,55.5597991943359400,56,97,99,77,82,15532,0,0,0,0,2147122660,2147773568,2147572397,2147565129,3490,2,13,27753
1367817242,5810,986.4099731445312000,39.3647003173828100,574.1450195312500000,4.0466790199279785,55.7567214965820300,55,98,100,79,82,15532,0,0,0,0,2147120000,2147767515,2147571483,2147565248,3020,2,13,14583
1367820842,5810,989.6599731445312000,38.7121887207031250,573.2885131835938000,4.0733242034912110,55.8453788757324200,54,98,100,78,81,15529,0,0,0,0,2147120905,2147772516,2147572178,2147566555,259,2,13,19988
1367824442,5813,993.7800292968750000,39.0289497375488300,572.6804809570312000,4.0922341346740720,55.7913398742675800,55,102,100,77,81,15527,0,0,0,0,2147122386,2147769737,2147570450,2147568356,33,3,13,54343
1367828042,5808,994.9000244140625000,36.6645317077636700,571.3052978515625000,4.1349911689758300,56.1327285766601560,55,98,99,77,81,15530,0,0,0,0,2147122624,2147767305,2147571090,2147565732,36,2,13,17986
1367831642,5812,989.0300292968750000,39.5492591857910160,572.6488037109375000,4.0932178497314450,55.7081909179687500,55,97,100,78,82,15529,0,0,0,0,2147118765,2147767168,2147574930,2147568539,182,2,13,19660
1367835242,5808,984.2899780273438000,39.3937416076660160,573.5253295898438000,4.0659561157226560,55.7450218200683600,54,97,100,77,81,15532,0,0,0,0,2147122998,2147771126,2147570944,2147566857,3509,2,13,46708
1367838842,5809,985.2800292968750000,39.3870506286621100,574.1547851562500000,4.0463728904724120,55.7555313110351560,54,97,100,78,81,15529,0,0,0,0,2147120886,2147769709,2147572105,2147568548,171,2,13,46546
1367842442,5809,994.5499877929688000,40.5859603881835940,573.5269775390625000,4.0659050941467285,55.5617408752441400,54,98,100,79,82,15529,0,0,0,0,2147120073,2147774336,2147574720,2147569179,3322,2,13,24352
1367846042,5808,991.8699951171875000,39.9436187744140600,572.9957885742188000,4.0824260711669920,55.6579399108886700,55,97,100,79,81,15530,0,0,0,0,2147124918,2147769060,2147576009,2147571858,230,2,13,65005
1367849642,5808,992.0800170898438000,40.4480514526367200,573.4218750000000000,4.0691719055175780,55.5847015380859400,55,99,100,78,82,15529,0,0,0,0,2147120429,2147771474,2147570102,2147567296,3435,2,13,52084
1367853242,5814,991.0700073242188000,39.8806610107421900,572.7626953125000000,4.0896759033203125,55.6636810302734400,55,118,99,79,82,15527,0,0,0,0,2147123181,2147771035,2147568841,2147569161,6,2,13,32072
1367856842,5809,994.3499755859375000,39.4321517944335940,572.1519165039062000,4.1086711883544920,55.7274589538574200,55,98,99,76,81,15529,0,0,0,0,2147120676,2147770166,2147572004,2147570148,116,3,13,13541
1367860442,5811,994.8900146484375000,39.0604705810546900,571.7963256835938000,4.1197261810302730,55.7754783630371100,56,98,100,78,81,15530,0,0,0,0,2147122285,2147770578,2147572800,2147567341,82,2,13,43587
1367864042,5812,999.0000000000000000,39.0862503051757800,570.7266235351562000,4.1529788970947270,55.7624702453613300,55,96,100,76,82,15528,0,0,0,0,2147121243,2147764562,2147573129,2147571053,3517,2,13,17764
1367867642,5809,1000.8200073242188000,40.0069808959960940,570.5286254882812000,4.1591320037841800,55.6173896789550800,54,97,99,77,82,15527,0,0,0,0,2147123181,2147770166,2147574966,2147566445,3319,2,13,618
1367871242,5814,999.9199829101562000,38.3687705993652340,570.9785156250000000,4.1451492309570310,55.8710594177246100,55,106,100,78,81,15521,0,0,0,0,2147124096,2147765339,2147573056,2147571373,31,2,13,52352
1367871955,5809,999.2000122070312000,39.1696891784668000,570.8248901367188000,4.1499228477478030,55.7517013549804700,55,98,100,78,83,15521,0,0,0,0,2147125888,2147766098,2147572443,2147567936,242,2,13,32713
